Weather History for Arbor Vitae, WI

Change the Weather History Date:

Friday, February 28, 2014

  Actual Average Record
Temperature  
Mean Temperature -6 °F -  
Max Temperature 9 °F 31 °F 50 °F (2004)
Min Temperature -20 °F 7 °F -22 °F (1963)
Degree Days  
Heating Degree Days 70    
Moisture  
Dew Point -11 °F    
Average Humidity 65    
Maximum Humidity 78    
Minimum Humidity 37    
Precipitation  
Precipitation 0.00 in - - ()
Sea Level Pressure  
Sea Level Pressure 29.92 in    
Wind  
Wind Speed 4 mph (SSW)    
Max Wind Speed 16 mph    
Max Gust Speed 22 mph    
Visibility 9 miles    
Events Snow    
Averages and records for this station are not official NWS values.
T = Trace of Precipitation, MM = Missing Value Source: NWS Daily Summary

Daily Weather History Graph

Daily Weather History Graph

Search for Another Location

Airport:

Trip Planner

Search our weather history database for the weather conditions in past years. The results will help you decide how hot, cold, wet, or windy it might be!

Date:

Astronomy

Feb. 28, 2014 Rise Set
Actual Time 6:39 AM CST 5:44 PM CST
Civil Twilight 6:09 AM CST 6:14 PM CST
Nautical Twilight 5:34 AM CST 6:48 PM CST
Astronomical Twilight 5:00 AM CST 7:23 PM CST
Moon 5:54 AM CST (2/28) 5:21 PM CST (2/28)
Length of Visible Light 12h 04m
Length of Day
11h 04m
Waning Crescent, 1% of the Moon is Illuminated
Feb 28
Waning Crescent
Mar 1
New
Mar 8
First Quarter
Mar 16
Full
Mar 23
Last Quarter

Hourly Weather History & Observations

Time (CST) Temp. Windchill Dew Point Humidity Pressure Visibility Wind Dir Wind Speed Gust Speed Precip Events Conditions
12:15 AM -18.8 °F - -25.8 °F 70% 30.02 in 10.0 mi Calm Calm - N/A   Clear
12:35 AM -19.3 °F - -26.3 °F 70% 30.01 in 10.0 mi Calm Calm - N/A   Clear
12:55 AM -18.8 °F - -25.8 °F 70% 30.01 in 10.0 mi Calm Calm - N/A   Clear
1:15 AM -18.8 °F - -25.8 °F 70% 30.01 in 10.0 mi Calm Calm - N/A   Clear
1:35 AM -18.8 °F - -26.0 °F 70% 30.00 in 10.0 mi Calm Calm - N/A   Clear
1:55 AM -18.8 °F - -26.3 °F 68% 30.00 in 10.0 mi Calm Calm - N/A   Clear
2:15 AM -18.6 °F - -25.8 °F 70% 29.99 in 10.0 mi Calm Calm - N/A   Clear
2:35 AM -18.6 °F - -26.0 °F 69% 29.99 in 10.0 mi Calm Calm - N/A   Clear
2:55 AM -18.8 °F - -25.8 °F 70% 29.98 in 10.0 mi Calm Calm - N/A   Clear
3:15 AM -20.9 °F - -28.3 °F 69% 29.98 in 10.0 mi Calm Calm - N/A   Clear
3:35 AM -18.8 °F - -26.5 °F 68% 29.98 in 10.0 mi Calm Calm - N/A   Clear
3:55 AM -18.4 °F - -26.1 °F 68% 29.97 in 10.0 mi Calm Calm - N/A   Clear
4:15 AM -16.2 °F - -24.9 °F 65% 29.97 in 10.0 mi Calm Calm - N/A   Clear
4:35 AM -16.4 °F - -25.1 °F 65% 29.97 in 10.0 mi Calm Calm - N/A   Clear
4:55 AM -18.4 °F - -26.5 °F 66% 29.97 in 10.0 mi Calm Calm - N/A   Clear
5:15 AM -17.5 °F - -25.6 °F 67% 29.97 in 10.0 mi Calm Calm - N/A   Clear
5:35 AM -15.9 °F - -25.1 °F 63% 29.97 in 10.0 mi Calm Calm - N/A   Scattered Clouds
5:55 AM -12.5 °F -22.1 °F -21.3 °F 65% 29.97 in 10.0 mi SE 3.5 mph - N/A   Overcast
6:15 AM -11.2 °F -20.6 °F -21.1 °F 62% 29.96 in 10.0 mi SE 3.5 mph - N/A   Overcast
6:35 AM -8.7 °F -17.8 °F -19.3 °F 60% 29.95 in 10.0 mi SE 3.5 mph - N/A   Overcast
6:55 AM -8.7 °F - -19.7 °F 59% 29.96 in 10.0 mi Calm Calm - N/A   Overcast
7:15 AM -8.7 °F - -20.4 °F 57% 29.96 in 10.0 mi Calm Calm - N/A   Overcast
7:35 AM -6.2 °F -18.9 °F -18.8 °F 55% 29.95 in 10.0 mi South 5.8 mph - N/A   Overcast
7:55 AM -3.6 °F -17.3 °F -17.7 °F 51% 29.96 in 10.0 mi South 6.9 mph - N/A   Mostly Cloudy
8:15 AM -3.6 °F -18.6 °F -18.8 °F 48% 29.96 in 10.0 mi South 8.1 mph - N/A   Scattered Clouds
8:35 AM -2.4 °F -18.2 °F -18.4 °F 47% 29.96 in 10.0 mi South 9.2 mph - N/A   Clear
8:55 AM -1.3 °F -16.8 °F -17.1 °F 47% 29.94 in 10.0 mi South 9.2 mph - N/A   Clear
9:15 AM 1.4 °F -17.6 °F -14.8 °F 47% 29.94 in 10.0 mi South 15.0 mph 18.4 mph N/A   Clear
9:35 AM 1.4 °F -16.1 °F -14.8 °F 47% 29.93 in 10.0 mi South 12.7 mph - N/A   Mostly Cloudy
9:55 AM 2.7 °F -12.9 °F -13.9 °F 46% 29.93 in 10.0 mi South 10.4 mph - N/A   Overcast
10:15 AM 3.2 °F -13.1 °F -14.8 °F 43% 29.92 in 10.0 mi South 11.5 mph - N/A   Overcast
10:35 AM 3.9 °F -12.2 °F -15.2 °F 41% 29.92 in 10.0 mi South 11.5 mph 18.4 mph N/A   Overcast
10:55 AM 3.9 °F -13.7 °F -14.1 °F 43% 29.92 in 10.0 mi SSW 13.8 mph - N/A   Overcast
11:15 AM 3.9 °F -11.3 °F -13.7 °F 44% 29.91 in 10.0 mi SSW 10.4 mph - N/A   Overcast
11:35 AM 5.0 °F -9.1 °F -13.7 °F 42% 29.91 in 10.0 mi South 9.2 mph - N/A   Mostly Cloudy
11:55 AM 5.5 °F -10.9 °F -13.2 °F 42% 29.90 in 10.0 mi South 12.7 mph 16.1 mph N/A   Clear
12:15 PM 5.4 °F -13.1 °F -8.9 °F 52% 29.89 in 4.0 mi South 16.1 mph 21.9 mph N/A   Haze
12:35 PM 5.9 °F -11.8 °F -8.0 °F 53% 29.88 in 5.0 mi South 15.0 mph 18.4 mph N/A   Haze
12:55 PM 7.2 °F -6.4 °F -10.5 °F 44% 29.87 in 10.0 mi South 9.2 mph 16.1 mph N/A   Scattered Clouds
1:15 PM 9.0 °F -5.1 °F -12.8 °F 37% 29.85 in 10.0 mi South 10.4 mph - N/A   Scattered Clouds
1:35 PM 9.0 °F -5.1 °F -10.1 °F 42% 29.84 in 7.0 mi SSW 10.4 mph 18.4 mph N/A Snow Light Snow
1:55 PM 7.7 °F -6.6 °F -2.2 °F 64% 29.84 in 1.8 mi SSE 10.4 mph - N/A Snow Light Snow
2:15 PM 7.2 °F -5.4 °F -0.8 °F 70% 29.84 in 2.0 mi SSE 8.1 mph - N/A Snow Light Snow
2:35 PM 7.7 °F -2.4 °F 1.0 °F 74% 29.83 in 1.2 mi South 5.8 mph - N/A Snow Light Snow
2:55 PM 8.4 °F -0.1 °F 1.8 °F 74% 29.83 in 1.2 mi South 4.6 mph - N/A Snow Light Snow
3:15 PM 9.0 °F -2.2 °F 2.5 °F 75% 29.83 in 1.8 mi South 6.9 mph - N/A Snow Light Snow
3:35 PM 9.0 °F -7.9 °F 2.3 °F 74% 29.82 in 5.0 mi South 15.0 mph 19.6 mph N/A Snow Light Snow
3:55 PM 9.0 °F -7.9 °F 1.8 °F 73% 29.83 in 10.0 mi South 15.0 mph 18.4 mph N/A   Mostly Cloudy
4:15 PM 9.0 °F -7.3 °F 1.9 °F 73% 29.83 in 10.0 mi SSW 13.8 mph - N/A   Scattered Clouds
4:35 PM 9.0 °F -7.3 °F 2.1 °F 74% 29.84 in 7.0 mi SSW 13.8 mph - N/A   Scattered Clouds
4:55 PM 9.0 °F -4.2 °F 2.3 °F 74% 29.84 in 5.0 mi SSW 9.2 mph - N/A Snow Light Snow
5:15 PM 9.0 °F -5.1 °F 2.3 °F 74% 29.84 in 3.0 mi SW 10.4 mph - N/A Snow Light Snow
5:35 PM 9.0 °F -4.2 °F 2.7 °F 76% 29.84 in 3.0 mi SW 9.2 mph - N/A Snow Light Snow
5:55 PM 9.0 °F -2.2 °F 2.8 °F 76% 29.85 in 5.0 mi SW 6.9 mph - N/A   Haze
6:15 PM 9.0 °F -0.9 °F 3.0 °F 77% 29.85 in 7.0 mi SW 5.8 mph - N/A   Scattered Clouds
6:35 PM 7.7 °F - 1.9 °F 77% 29.87 in 10.0 mi Calm Calm - N/A   Scattered Clouds
6:55 PM 9.0 °F -0.9 °F 2.5 °F 75% 29.88 in 10.0 mi West 5.8 mph - N/A   Overcast
7:15 PM 9.0 °F -2.2 °F 2.3 °F 74% 29.88 in 10.0 mi WSW 6.9 mph - N/A   Mostly Cloudy
7:35 PM 7.7 °F -0.9 °F 1.4 °F 75% 29.88 in 10.0 mi WSW 4.6 mph - N/A Snow Light Snow
7:55 PM 6.4 °F -5.2 °F 0.5 °F 77% 29.89 in 10.0 mi West 6.9 mph - N/A   Scattered Clouds
8:15 PM 6.4 °F -2.4 °F 0.5 °F 77% 29.90 in 10.0 mi West 4.6 mph - N/A Snow Light Snow
8:35 PM 6.4 °F -3.9 °F 0.5 °F 77% 29.91 in 10.0 mi West 5.8 mph - N/A   Mostly Cloudy
8:55 PM 6.1 °F -4.3 °F -0.0 °F 76% 29.91 in 10.0 mi West 5.8 mph - N/A   Scattered Clouds
9:15 PM 5.5 °F -3.4 °F -0.4 °F 77% 29.91 in 10.0 mi West 4.6 mph - N/A   Clear
9:35 PM 5.0 °F -4.1 °F -0.6 °F 78% 29.91 in 10.0 mi West 4.6 mph - N/A   Clear
9:55 PM 5.0 °F -2.1 °F -0.6 °F 78% 29.91 in 10.0 mi West 3.5 mph - N/A   Clear
10:15 PM 5.0 °F -4.1 °F -0.4 °F 78% 29.92 in 10.0 mi West 4.6 mph - N/A   Clear
10:35 PM 4.8 °F -2.3 °F -0.6 °F 78% 29.93 in 10.0 mi WNW 3.5 mph - N/A   Clear
10:55 PM 5.0 °F -4.1 °F -0.4 °F 78% 29.93 in 10.0 mi West 4.6 mph - N/A   Clear
11:15 PM 5.0 °F -4.1 °F -0.6 °F 78% 29.94 in 10.0 mi NW 4.6 mph - N/A   Clear
11:35 PM 5.0 °F -6.9 °F -1.3 °F 75% 29.95 in 10.0 mi NW 6.9 mph - N/A   Clear
11:55 PM 5.0 °F -6.9 °F -2.0 °F 73% 29.96 in 10.0 mi NW 6.9 mph - N/A   Clear